Domov               UVHVVR             MKGP            O straneh              
ZDRAVSTVENO VARSTVO RASTLIN
  MREŽA AGROMET. POSTAJ
 ► PROGNOSTIČNA OBVESTILA
AGROMETEOROLOŠKI PODATKI -
ARSO
OBVLADOVANJE TVEGANJ ZARADI
NEUGODNIH VREMENSKIH RAZMER
  ► NARAVNE NESREČE
  ► SUŠA/MOČA
  ► NAMAKANJE
  ► ŽLED (gozdarstvo)
KARTOGRAFSKI PRIKAZI
SPLETNE POVEZAVE
PROJEKTI IN PUBLIKACIJE

AGROMETEOROLOŠKA MREŽA: VREMENSKE POSTAJE IN FENOLOŠKA OPAZOVANJA

Pregled podatkov za lokacijo Komen, meteorološka postaja 42394

Pregled senzorjev na lokaciji

ID Ime Zadnja
vrednost
Datum
zadnje
spremembe
Tip
senzorja
4430 Omočenost lista (U) 0 U 22.3.2019 22:30 A730WET
4431 Padavine (mm) 0 mm 22.3.2019 22:30 Generic 0.2 mm
4429 Relativna vlaga 2 m (% RH) 21,39 % RH 22.3.2019 22:29 50YA
4428 Temperatura 2 m (°C) 14,44 °C 22.3.2019 22:29 50YA

Pregled podatkov zadnjih 24 ur

Zap.
št.
Datum in čas Komen
Omočenost
lista
Padavine Relativna
vlaga
2
m
Temperatura
2
m
1 22.3.2019 23:30
2 22.3.2019 23:00
3 22.3.2019 22:30
4 22.3.2019 22:00
5 22.3.2019 21:30 0 0 21,4 14,4
6 22.3.2019 21:00 0 0 21,1 14,7
7 22.3.2019 20:30 0 0 21,1 14,7
8 22.3.2019 20:00 0 0 21,8 14,5
9 22.3.2019 19:30 0 0 22,9 14,2
10 22.3.2019 19:00 0 0 22,5 14,4
11 22.3.2019 18:30 0 0 20,2 15,4
12 22.3.2019 18:00 0 0 17,5 16,2
13 22.3.2019 17:30 0 0 15,8 16,8
14 22.3.2019 17:00 0 0 14,2 17,6
15 22.3.2019 16:30 0 0 12,4 18,1
16 22.3.2019 16:00 0 0 11,8 18,3
17 22.3.2019 15:30 0 0 11,4 18,7
18 22.3.2019 15:00 0 0 11 18,7
19 22.3.2019 14:30 0 0 11,2 18,6
20 22.3.2019 14:00 0 0 11,7 18,2
21 22.3.2019 13:30 0 0 12,6 17,9
22 22.3.2019 13:00 0 0 13,2 17,3
23 22.3.2019 12:30 0 0 14,7 17,1
24 22.3.2019 12:00 0 0 16,2 16,3
25 22.3.2019 11:30 0 0 17,1 15,7
26 22.3.2019 11:00 0 0 17,9 15,2
27 22.3.2019 10:30 0 0 20 14,6
28 22.3.2019 10:00 0 0 21,4 14,2
29 22.3.2019 09:30 0 0 23,5 13,2
30 22.3.2019 09:00 0 0 24 12,5
31 22.3.2019 08:30 0 0 26,1 11,7
32 22.3.2019 08:00 0 0 27,2 10,9
33 22.3.2019 07:30 0 0 27,1 10,2
34 22.3.2019 07:00 0 0 25,2 9,9
35 22.3.2019 06:30 0 0 25,5 9,4
36 22.3.2019 06:00 0 0 27,4 8,9
37 22.3.2019 05:30 0 0 26,9 9
38 22.3.2019 05:00 0 0 28,2 8,8
39 22.3.2019 04:30 0 0 29,3 8,3
40 22.3.2019 04:00 0 0 30,8 8,4
41 22.3.2019 03:30 0 0 30,3 8,8
42 22.3.2019 03:00 0 0 30,3 8,9
43 22.3.2019 02:30 0 0 31 9
44 22.3.2019 02:00 0 0 31,1 9,1
45 22.3.2019 01:30 0 0 31,5 9,1
46 22.3.2019 01:00 0 0 32,6 9
47 22.3.2019 00:30 0 0 33,8 8,8
48 22.3.2019 00:00 0 0 33,4 9
© 2011 Ministrstvo za kmetijstvo, gozdarstvo in prehrano. Vse pravice pridržane.